Printer-friendly version

IAU Minor Planet Center

Minor Planet Center

MPEC 2005-F36 : COMET C/2005 A1 (LINEAR)

The following Minor Planet Electronic Circular may be linked-to from your own Web pages, but must not otherwise be redistributed electronically.


Read MPEC 2005-F35 Read MPEC 2005-F37


M.P.E.C. 2005-F36                                Issued 2005 Mar. 22, 15:54 UT

     The Minor Planet Electronic Circulars contain information on unusual
         minor planets and routine data on comets.  They are published
   on behalf of Commission 20 of the International Astronomical Union by the
          Minor Planet Center, Smithsonian Astrophysical Observatory,
                          Cambridge, MA 02138, U.S.A.

                  Supported in part by the Brinson Foundation
             Prepared using the Tamkin Foundation Computer Network

                              MPC@CFA.HARVARD.EDU
          URL http://cfa-www.harvard.edu/iau/mpc.html  ISSN 1523-6714

                           COMET C/2005 A1 (LINEAR)

Observations:
    CK05A010  C2005 03 09.00522 23 36 47.50 -75 33 10.5                 EF036834
    CK05A010  C2005 03 09.01795 23 37 02.60 -75 31 59.6                 EF036834
    CK05A010  C2005 03 09.03759 23 37 25.48 -75 30 11.0                 EF036834
    CK05A010  C2005 03 09.99852 23 54 07.67 -74 00 44.5                 EF036834
    CK05A010  C2005 03 10.00966 23 54 18.16 -73 59 40.4                 EF036834
    CK05A010  C2005 03 11.00824 00 08 22.64 -72 24 39.2                 EF036834
    CK05A010  C2005 03 11.02579 00 08 36.00 -72 22 57.6                 EF036834
    CK05A010  C2005 03 11.04243 00 08 48.82 -72 21 21.1                 EF036834
    CK05A010  C2005 03 11.33742 00 12 25.94 -71 53 07.6          12.8 N EF036467
    CK05A010  C2005 03 11.33807 00 12 26.40 -71 53 03.8          12.8 N EF036467
    CK05A010  C2005 03 11.33872 00 12 26.87 -71 53 00.0          12.8 N EF036467
    CK05A010  C2005 03 14.97689 00 44 25.06 -66 07 12.0                 EF036834
    CK05A010  C2005 03 14.99365 00 44 31.58 -66 05 37.6                 EF036834
    CK05A010  C2005 03 15.01587 00 44 40.21 -66 03 32.1                 EF036834
    CK05A010  C2005 03 15.98524 00 50 27.92 -64 34 10.0                 EF036834
    CK05A010  C2005 03 15.99779 00 50 32.12 -64 33 00.7                 EF036834
    CK05A010  C2005 03 16.01192 00 50 36.85 -64 31 42.8                 EF036834
    CK05A010  C2005 03 17.04029 00 55 56.81 -62 58 43.4          12.5 T EF036I30
    CK05A010  C2005 03 17.04223 00 55 57.37 -62 58 32.1          12.6 T EF036I30
    CK05A010  C2005 03 17.08221 00 56 09.26 -62 54 56.0          12.5 T EF036I30
    CK05A010  C2005 03 17.08415 00 56 09.95 -62 54 45.0          12.6 T EF036I30
    CK05A010  C2005 03 22.45488 01 15 19.32 -55 23 52.7          12.1 N EF036D87
    CK05A010  C2005 03 22.46045 01 15 20.20 -55 23 27.5          12.4 N EF036D87
    CK05A010  C2005 03 22.46412 01 15 20.81 -55 23 09.2          12.5 N EF036D87

Observer details:
467 Auckland Observatory.  Observer G. W. Christie.  0.35-m f/11
    Schmidt-Cassegrain + CCD.
834 Buenos Aires-AAAA.  Observers R. Mackintosh, M. Konishi, R. Caprio.
    Measurer R. Mackintosh.  0.25-m f/6.3 Schmidt-Cassegrain + CCD.
D87 Brooklyn Park.  Observer M. Mattiazzo.  0.28-m f/3.3 Schmidt-Cassegrain
    + CCD.
I30 Observatorio Geminis Austral.  Observer J. L. Sanchez.  Measurers
    J. L. Sanchez, L. A. Mansilla.  0.25-m f/4 reflector + CCD.

Orbital elements:
    C/2005 A1 (LINEAR)
Epoch 2005 Apr. 20.0 TT = JDT 2453480.5
T 2005 Apr. 10.23143 TT                                 MPC
q   0.9068170            (2000.0)            P               Q
z  -0.0004261      Peri.  271.87269     +0.01377097     +0.99747113
 +/-0.0000290      Node   355.85824     +0.14316488     -0.07098094
e   1.0003864      Incl.   74.88543     -0.98960304     +0.00361172
Residuals in seconds of arc
041209 704  0.8-  0.1-    050117 704 (5.8-  3.8+)   050205 349  0.4-  0.6+
041209 704  0.1-  0.1-    050117 704 (3.4-  2.8+)   050205 349  0.0   0.3+
041209 704  0.2-  0.2+    050117 704 (4.2-  4.2+)   050205 349  0.1-  0.9+
041209 704  0.6-  1.1+    050117 704 (4.1-  2.4+)   050206 372  0.3-  1.0+
041209 704  1.0-  0.3+    050117 704 (3.9-  2.6+)   050206 372  0.7-  0.4+
041209 703  0.2+  1.0-    050117 704 (2.8-  1.7+)   050206 372  0.7-  0.5+
041209 703  0.1-  1.0-    050117 704 (7.7-  3.5+)   050208 I77  0.1+  0.1+
041209 703  0.1+  1.2-    050117 372  0.9+  0.0     050208 I77  0.2+  0.1+
041209 703  0.4+  1.1-    050117 372  0.9+  0.6-    050208 I77  0.3+  0.0
041215 704  0.3-  0.7+    050117 372  0.4+  0.9-    050208 I77  0.7+  0.1-
041215 704  0.5-  0.7+    050117 349  0.3-  0.0     050208 I77  0.3+  0.2-
041215 704  0.8-  1.0+    050117 349  0.3-  0.0     050208 372  0.1-  1.4-
041215 704  0.4-  0.7+    050117 349  0.4-  0.0     050208 372  0.0   1.5-
041215 704  0.8-  0.7+    050117 349  0.3-  0.2-    050210 834  0.4+  0.3+
050113 704 (4.3-  3.9+)   050118 246  0.0   0.2+    050210 834  0.5+  0.1-
050113 704 (4.4-  4.1+)   050118 246  0.2+  0.4+    050211 I77 (2.3+  0.7+)
050113 704 (4.1-  3.5+)   050118 246  0.3+  0.3+    050211 I77 (2.2+  0.4+)
050113 704 (3.6-  3.7+)   050118 246  0.6+  0.2+    050211 I77 (2.9+  0.6+)
050113 704 (4.9-  2.9+)   050118 246  0.2+  0.1+    050211 I77 (3.1-  0.5-)
050114 I77  0.5-  0.1-    050118 246  0.0   0.4+    050211 415  1.0+  0.3-
050114 I77  0.2-  0.5-    050119 673  0.7+  0.6-    050211 415  0.6+  0.1-
050114 I77  0.3-  0.4-    050119 673  0.4+  0.6-    050211 372  1.6+  0.4-
050114 H06  0.2-  0.4-    050119 673  1.1+  0.5-    050211 372  1.1+  0.3+
050114 H06  0.5-  0.1+    050119 673  0.6+  0.4-    050217 I77  0.1+  0.2+
050114 H06  0.8-  0.5-    050119 D83  0.4-  0.3+    050217 I77  0.0   0.2+
050114 H06  0.4-  0.1-    050119 D83  1.0-  0.8+    050217 I77  0.1+  0.3+
050114 H06  0.2+  0.9-    050119 D83  0.4+  0.2+    050217 I77  0.1+  0.3+
050114 H06  0.8-  0.1-    050119 372  0.5+  0.8-    050218 834  0.2+  0.2+
050114 673  0.9+  0.7-    050119 372  0.6-  0.1+    050218 834  0.4+  0.1+
050114 673  0.2+  0.1+    050119 372  0.3-  0.0     050218 834  0.0   0.0
050114 673  0.8+  0.1-    050120 A61 (1.2-  2.3+)   050219 834  0.3+  0.2-
050114 673  0.5+  0.5-    050120 A61 (1.3-  2.1+)   050219 834  0.2+  0.4-
050114 673  0.5+  0.0     050120 A61  0.7-  1.8+    050219 834  0.1+  0.2-
050114 673  1.2+  0.9-    050120 850  0.0   0.2+    050219 834  0.4+  0.1-
050115 213  0.5+  0.2+    050120 850  0.2-  0.5+    050222 I77  0.3+  0.2-
050115 213  0.4-  0.6+    050120 349  0.1-  0.2+    050222 I77  0.1-  0.1+
050115 213  0.4-  0.3+    050120 349  0.1-  0.1+    050222 I77  0.4+  0.2-
050115 H06  0.6-  0.1+    050120 349  0.2-  0.2+    050222 I77  0.5+  0.0
050115 H06  0.8-  0.3+    050120 349  0.0   0.1+    050222 I77  0.2+  0.0
050115 704 (4.3-  3.1+)   050121 A61 (1.9-  4.0+)   050301 834  0.3+  0.3+
050115 704 (5.0-  3.7+)   050121 A61 (1.1-  4.7+)   050301 834  0.3-  0.3+
050115 H06  0.4-  0.2-    050121 A61 (2.1-  4.6+)   050301 834  0.1+  0.1+
050115 704 (4.0-  3.0+)   050121 349  0.2-  0.2+    050301 834  0.4+  0.2+
050115 704 (3.8-  3.4+)   050121 349  0.1-  0.1-    050303 834  0.3+  0.2+
050115 704 (5.2-  2.5+)   050121 349  0.1-  0.0     050303 834  0.3+  0.3+
050115 673  0.6+  0.3-    050121 D83  0.0   0.5-    050304 834  0.2+  0.2+
050115 673  0.7+  0.3-    050121 D83  0.5+  0.6+    050304 834  0.1+  0.3+
050115 673  0.7+  0.3-    050121 D83  0.1-  0.1-    050304 844  0.4-  0.3-
050115 673  0.7+  0.5-    050121 D83  0.3+  0.2+    050304 844  0.2-  0.1-
050115 372  0.7-  1.0+    050121 360  0.6+  0.1-    050304 844  0.5-  0.4-
050115 372  0.4-  1.1+    050121 360  0.7+  0.1-    050304 844  0.5-  0.4-
050115 372  0.4-  0.4+    050121 360  0.6+  0.2-    050304 844  0.6-  0.6-
050115 372  0.6-  0.1-    050122 213  0.5-  0.2+    050309 834  0.2-  0.1-
050115 372  0.7-  0.8+    050122 213  0.5-  0.5+    050309 834  0.5+  0.4+
050116 844  0.7-  0.0     050122 213  0.5-  0.7+    050309 834  0.3+  0.2+
050116 844  0.1+  1.9-    050122 213  0.1-  0.3+    050309 834  0.3+  0.1-
050116 844  0.6-  0.2+    050123 844  0.7-  0.2+    050310 834  0.3+  0.4+
050116 844  1.0-  0.3+    050123 844  0.8-  0.3+    050311 834  0.2+  0.1+
050116 704 (4.4-  4.3+)   050123 844  0.7-  0.3+    050311 834  0.2-  0.1+
050116 H06  0.7-  0.0     050126 349  0.1-  0.3+    050311 834  0.2+  0.3+
050116 704 (5.3-  4.3+)   050126 349  0.3-  0.0     050311 467  0.3+  0.2+
050116 H06  0.7-  0.1+    050126 349  0.4-  0.2+    050311 467  0.3+  0.3+
050116 704 (5.0-  4.0+)   050130 213  0.1-  0.0     050311 467  0.3+  0.3+
050116 H06  0.4-  0.3-    050130 213  1.1-  1.8+    050314 834  0.2+  0.6-
050116 704 (5.2-  3.6+)   050130 213  0.0   0.5+    050314 834  0.3+  0.5-
050116 704 (5.5-  3.4+)   050131 349  0.2-  0.4+    050315 834  0.5+  0.0
050116 349  0.2-  0.1-    050131 349  0.4-  0.7+    050315 834  0.7+  0.1-
050116 349  0.3-  0.3-    050131 349  0.2-  0.2+    050315 834  0.6+  0.2-
050116 349  0.3-  0.1-    050204 834  1.3+  0.2-    050316 834  0.5+  0.4-
050116 349  0.1-  0.2-    050204 834  0.7+  0.6+    050317 I30  0.3-  0.7-
050117 945  0.0   1.6-    050204 349  0.2+  0.9+    050317 I30  0.3-  0.1+
050117 945  0.2-  1.7-    050204 349  0.1+  0.8+    050317 I30  0.7+  0.2+
050117 945  0.2+  1.6-    050204 349  0.2-  0.8+    050317 I30  1.5+  0.8+
050117 945  0.2+  1.7-    050204 349  0.4-  1.0+    050322 D87  0.8+  1.3-
050117 945  0.2+  1.7-    050205 834  0.3+  0.0     050322 D87 (0.7+  2.5-)
050117 704 (6.6-  4.6+)   050205 834  0.7+  0.2-    050322 D87  0.9+  1.6-
050117 704 (7.9-  5.6+)   050205 834  0.5+  0.1-
050117 704 (2.5-  1.6+)   050205 349  0.3-  0.7+

     The "original" and "future" barycentric values of 1/a are +0.000333
and -0.000255 (+/- 0.000029) AU^-1, respectively.

Brian G. Marsden             (C) Copyright 2005 MPC           M.P.E.C. 2005-F36

Read MPEC 2005-F35 Read MPEC 2005-F37


Our Web policy. Index to the CBAT/MPC/ICQ pages.


Valid HTML 4.01!